This is the latest recevied weather packets stored in our database for station/object K5OLV. If no packets are shown the sender has not sent any weather packets the latest 10 day(s).
| Time | Temp. | Humidity | Pressure | Rain* | Wind** | Luminosity | Snow |
|---|---|---|---|---|---|---|---|
| 1777543528 | 11.67° C | 97% | 1009.3 hPa | 0 mm | - | 0 W/m² | - |
| 1777543225 | 11.67° C | 97% | 1009.5 hPa | 0 mm | - | 0 W/m² | - |
| 1777542921 | 11.67° C | 97% | 1009.3 hPa | 0 mm | - | 0 W/m² | - |
| 1777542617 | 11.67° C | 97% | 1009 hPa | 0 mm | - | 0 W/m² | - |
| 1777542313 | 11.67° C | 97% | 1009.6 hPa | 0 mm | - | 0 W/m² | - |
| 1777542011 | 11.67° C | 97% | 1009.3 hPa | 0 mm | - | 0 W/m² | - |
| 1777541708 | 11.67° C | 98% | 1008.8 hPa | 0 mm | - | 0 W/m² | - |
| 1777541405 | 11.67° C | 98% | 1009.1 hPa | 0 mm | - | 0 W/m² | - |
| 1777541100 | 11.67° C | 98% | 1009.5 hPa | 0 mm | - | 0 W/m² | - |
| 1777540798 | 11.67° C | 98% | 1009.5 hPa | 0 mm | - | 0 W/m² | - |
| 1777540495 | 11.67° C | 98% | 1008.9 hPa | 0 mm | - | 0 W/m² | - |
| 1777540192 | 11.67° C | 98% | 1009 hPa | 0 mm | - | 0 W/m² | - |
| 1777539892 | 12.22° C | 98% | 1008.9 hPa | 1.27 mm | - | 0 W/m² | - |
| 1777539589 | 12.22° C | 98% | 1009.4 hPa | 1.27 mm | - | 0 W/m² | - |
| 1777539285 | 12.22° C | 98% | 1009.1 hPa | 0 mm | - | 0 W/m² | - |
| 1777538982 | 12.22° C | 98% | 1009.5 hPa | 0 mm | - | 0 W/m² | - |
| 1777538678 | 12.22° C | 98% | 1010.1 hPa | 0 mm | - | 0 W/m² | - |
| 1777538372 | 12.22° C | 98% | 1010.2 hPa | 1.78 mm | - | 0 W/m² | - |
| 1777538069 | 12.22° C | 98% | 1010.1 hPa | 1.78 mm | - | 0 W/m² | - |
| 1777537764 | 12.22° C | 98% | 1010.4 hPa | 1.27 mm | - | 0 W/m² | - |
| 1777537461 | 12.22° C | 98% | 1010.2 hPa | 1.27 mm | - | 0 W/m² | - |
| 1777537157 | 12.22° C | 97% | 1010.3 hPa | 1.78 mm | - | 0 W/m² | - |
| 1777536853 | 12.22° C | 97% | 1010.1 hPa | 3.05 mm | - | 0 W/m² | - |
| 1777536552 | 12.22° C | 97% | 1010.1 hPa | 3.05 mm | - | 0 W/m² | - |
| 1777536248 | 12.22° C | 97% | 1010.1 hPa | 3.05 mm | - | 0 W/m² | - |
* Rain latest hour (hover to see other rain measurements)
** Current wind speed in m/s (hover to see current wind gust speed)